Track STARLINK-2606 now! 10-day predictions STARLINK-2606 is classified as:
1 48386U 21038AK 22186.50812863 .00000338 00000-0 41589-4 0 9990 2 48386 53.0550 256.4095 0001680 62.6247 297.4913 15.06396099 64780